Location: Newark
(45.2500°N, 7.5833°E)
Time: 21:05:01
(UTC+00:00)

Vanguard 3 - Pass Details

Date: 28 January 2020
Orbit: 508 x 3263 km, 33.3° (Epoch: 22 February)

Event Time Altitude Azimuth Distance (km) Brightness Sun altitude
Rises 21:00:48 0° 275° (W) 7,200 12.6 -46.9°
Reaches altitude 10° 21:06:25 10° 269° (W) 6,033 12.0 -47.8°
Enters shadow 21:20:45 36° 219° (SW) 3,502 10.2 -50.0°
Maximum altitude 21:21:46 36° 212° (SSW) 3,418 - -50.2°
Drops below altitude 10° 21:32:11 10° 151° (SSE) 4,099 - -51.7°
Sets 21:35:12 0° 142° (SE) 4,742 - -52.1°
